| time (UTC) | temp F | wind direction | speed knots | gust knots | rain 1hr in | rain 24hr in | rain mn in | humidity % | barometer mb |
| 20260502123100 | 67 | 213 | 2.6 | 0.0 | 0.00 | 0.00 | 0.00 | 74 | 1019.8 |
| 20260502121603 | 68 | 229 | 2.6 | 0.0 | 0.00 | 0.00 | 0.00 | 73 | 1020.1 |
| 20260502120113 | 68 | 217 | 2.6 | 0.0 | 0.00 | 0.00 | 0.00 | 73 | 1020.3 |
| 20260502114607 | 68 | 360 | 2.6 | 0.0 | 0.00 | 0.00 | 0.00 | 71 | 1020.4 |
| 20260502113113 | 69 | 271 | 2.6 | 0.0 | 0.00 | 0.00 | 0.00 | 71 | 1020.5 |
| 20260502111557 | 68 | 360 | 1.7 | 0.0 | 0.00 | 0.00 | 0.00 | 72 | 1020.6 |
| 20260502110057 | 68 | 360 | 2.6 | 0.0 | 0.00 | 0.00 | 0.00 | 1020.7 | |
| 20260502104537 | 68 | 360 | 2.6 | 0.0 | 0.00 | 0.00 | 0.00 | 71 | 1020.9 |
| 20260502103059 | 68 | 360 | 2.6 | 0.0 | 0.00 | 0.00 | 0.00 | 72 | 1021.1 |
| 20260502101547 | 67 | 360 | 1.7 | 0.0 | 0.00 | 0.00 | 0.00 | 73 | 1021.3 |
| 20260502091533 | 67 | 360 | 1.7 | 0.0 | 0.00 | 0.00 | 0.00 | 73 | 1021.3 |
| 20260502071520 | 65 | 273 | 0.0 | 0.0 | 0.00 | 0.00 | 0.00 | 81 | 1021.3 |
| 20260502070017 | 64 | 273 | 0.0 | 0.0 | 0.00 | 0.00 | 0.00 | 84 | 1021.3 |
| 20260502064559 | 62 | 273 | 0.0 | 0.0 | 0.00 | 0.00 | 0.00 | 84 | 1021.2 |
| 20260502063124 | 61 | 273 | 0.0 | 0.0 | 0.00 | 0.00 | 0.00 | 85 | 1021.4 |
| 20260502061542 | 61 | 273 | 0.0 | 0.0 | 0.00 | 0.00 | 0.00 | 86 | 1021.6 |
| 20260502060041 | 60 | 273 | 0.0 | 0.0 | 0.00 | 0.00 | 0.00 | 87 | 1021.5 |
| 20260502054545 | 59 | 273 | 0.0 | 0.0 | 0.00 | 0.00 | 0.00 | 87 | 1021.4 |
| 20260502053031 | 58 | 273 | 0.0 | 0.0 | 0.00 | 0.00 | 0.00 | 87 | 1021.2 |
| 20260502051527 | 58 | 360 | 0.0 | 0.0 | 0.00 | 0.00 | 0.00 | 87 | 1020.9 |
| 20260502050026 | 58 | 360 | 0.0 | 0.0 | 0.00 | 0.00 | 0.00 | 87 | 1020.9 |
| 20260502044525 | 59 | 360 | 0.0 | 0.0 | 0.00 | 0.00 | 0.00 | 87 | 1020.9 |
| 20260502043027 | 59 | 360 | 0.0 | 0.0 | 0.00 | 0.00 | 0.00 | 86 | 1020.8 |
| 20260502041521 | 60 | 360 | 0.0 | 0.0 | 0.00 | 0.00 | 0.00 | 86 | 1020.9 |
| 20260502040019 | 60 | 360 | 0.0 | 0.0 | 0.00 | 0.00 | 0.00 | 86 | 1020.9 |
| 20260502034502 | 61 | 360 | 0.0 | 0.0 | 0.00 | 0.00 | 0.00 | 86 | 1021.2 |
| 20260502033001 | 61 | 360 | 0.0 | 0.0 | 0.00 | 0.00 | 0.00 | 87 | 1021.1 |
| 20260502031601 | 61 | 360 | 0.0 | 0.0 | 0.00 | 0.00 | 0.00 | 87 | 1021.1 |
| 20260502030103 | 61 | 360 | 0.0 | 0.0 | 0.00 | 0.00 | 0.00 | 87 | 1021.2 |
| 20260502024549 | 61 | 360 | 0.0 | 0.0 | 0.00 | 0.00 | 0.00 | 86 | 1021.3 |
| 20260502023054 | 61 | 360 | 0.0 | 0.0 | 0.00 | 0.00 | 0.00 | 86 | 1021.3 |
| 20260502021548 | 60 | 360 | 0.0 | 0.0 | 0.00 | 0.00 | 0.00 | 86 | 1021.4 |
| 20260502020048 | 60 | 360 | 0.0 | 0.0 | 0.00 | 0.00 | 0.00 | 86 | 1021.7 |
| 20260502014547 | 60 | 360 | 0.0 | 0.0 | 0.00 | 0.00 | 0.00 | 86 | 1021.8 |
| 20260502013054 | 60 | 360 | 0.0 | 0.0 | 0.00 | 0.00 | 0.00 | 86 | 1021.8 |
| 20260502011547 | 60 | 360 | 0.0 | 0.0 | 0.00 | 0.00 | 0.00 | 85 | 1021.9 |
| 20260502010040 | 61 | 360 | 0.0 | 0.0 | 0.00 | 0.00 | 0.00 | 85 | 1022.1 |
| 20260502004533 | 61 | 360 | 0.0 | 0.0 | 0.00 | 0.00 | 0.00 | 84 | 1022.0 |
| 20260502003030 | 62 | 360 | 0.0 | 0.0 | 0.00 | 0.00 | 0.00 | 84 | 1022.1 |
| 20260502001532 | 62 | 360 | 0.0 | 0.0 | 0.00 | 0.00 | 0.00 | 83 | 1022.2 |
| 20260502000028 | 62 | 360 | 0.0 | 0.0 | 0.00 | 0.00 | 0.00 | 83 | 1022.3 |
| 20260501234528 | 63 | 360 | 0.0 | 0.0 | 0.00 | 0.00 | 0.00 | 82 | 1022.5 |
| 20260501233025 | 63 | 360 | 0.0 | 0.0 | 0.00 | 0.00 | 0.00 | 82 | 1022.4 |
| 20260501231525 | 63 | 360 | 0.0 | 0.0 | 0.00 | 0.00 | 0.00 | 82 | 1022.4 |
| 20260501230013 | 63 | 360 | 0.0 | 0.0 | 0.00 | 0.00 | 0.00 | 82 | 1022.4 |
| 20260501224512 | 63 | 360 | 0.0 | 0.0 | 0.00 | 0.00 | 0.00 | 82 | 1022.2 |
| 20260501223030 | 63 | 360 | 0.0 | 0.0 | 0.00 | 0.00 | 0.00 | 82 | 1022.1 |
| 20260501221510 | 64 | 360 | 0.0 | 0.0 | 0.00 | 0.00 | 0.00 | 82 | 1022.1 |
| 20260501220010 | 65 | 360 | 0.9 | 0.0 | 0.00 | 0.00 | 0.00 | 83 | 1022.1 |
| 20260501214523 | 64 | 360 | 0.0 | 0.0 | 0.00 | 0.00 | 0.00 | 81 | 1022.2 |
| 20260501213008 | 64 | 244 | 0.0 | 0.0 | 0.00 | 0.00 | 0.00 | 81 | 1022.2 |
| 20260501211509 | 65 | 242 | 0.0 | 0.0 | 0.00 | 0.00 | 0.00 | 83 | 1022.3 |
| 20260501210050 | 65 | 220 | 0.0 | 0.0 | 0.00 | 0.00 | 0.00 | 82 | 1022.4 |
| 20260501204559 | 64 | 212 | 0.0 | 0.0 | 0.00 | 0.00 | 0.00 | 82 | 1022.3 |
| 20260501203040 | 64 | 212 | 0.0 | 0.0 | 0.00 | 0.00 | 0.00 | 81 | 1022.2 |
| 20260501201536 | 64 | 212 | 0.0 | 0.0 | 0.00 | 0.00 | 0.00 | 81 | 1022.2 |
| 20260501200037 | 64 | 212 | 0.0 | 0.0 | 0.00 | 0.00 | 0.00 | 80 | 1022.1 |
| 20260501194535 | 64 | 212 | 0.0 | 0.0 | 0.00 | 0.00 | 0.00 | 80 | 1022.0 |
| 20260501193034 | 64 | 212 | 0.0 | 0.0 | 0.00 | 0.00 | 0.00 | 80 | 1021.8 |
| 20260501191531 | 64 | 212 | 0.0 | 0.0 | 0.00 | 0.00 | 0.00 | 80 | 1021.8 |
| 20260501190030 | 64 | 212 | 0.0 | 0.0 | 0.00 | 0.00 | 0.00 | 79 | 1021.7 |
| 20260501184528 | 64 | 212 | 0.9 | 0.0 | 0.00 | 0.00 | 0.00 | 79 | 1021.6 |
| 20260501183014 | 64 | 211 | 1.7 | 0.0 | 0.00 | 0.00 | 0.00 | 79 | 1021.4 |
| 20260501181512 | 64 | 206 | 1.7 | 0.0 | 0.00 | 0.00 | 0.00 | 78 | 1021.3 |
| 20260501180012 | 65 | 215 | 0.9 | 0.0 | 0.00 | 0.00 | 0.00 | 77 | 1021.3 |
| 20260501174510 | 65 | 213 | 0.9 | 0.0 | 0.00 | 0.00 | 0.00 | 76 | 1021.3 |
| 20260501173008 | 65 | 211 | 1.7 | 0.0 | 0.00 | 0.00 | 0.00 | 75 | 1021.3 |
| 20260501171508 | 65 | 207 | 2.6 | 0.0 | 0.00 | 0.00 | 0.00 | 73 | 1021.2 |
| 20260501170005 | 65 | 209 | 2.6 | 0.0 | 0.00 | 0.00 | 0.00 | 72 | 1021.2 |
| 20260501164502 | 66 | 215 | 2.6 | 0.0 | 0.00 | 0.00 | 0.00 | 70 | 1021.2 |
| 20260501163043 | 66 | 219 | 4.3 | 0.0 | 0.00 | 0.00 | 0.00 | 69 | 1021.2 |
| 20260501161539 | 67 | 200 | 4.3 | 0.0 | 0.00 | 0.00 | 0.00 | 66 | 1021.1 |
| 20260501160032 | 68 | 201 | 2.6 | 0.0 | 0.00 | 0.00 | 0.00 | 65 | 1021.0 |
| 20260501154526 | 67 | 203 | 3.5 | 0.0 | 0.00 | 0.00 | 0.00 | 63 | 1021.2 |
| 20260501153024 | 67 | 208 | 1.7 | 0.0 | 0.00 | 0.00 | 0.00 | 62 | 1021.1 |
| 20260501151522 | 67 | 216 | 0.0 | 0.0 | 0.00 | 0.00 | 0.00 | 61 | 1021.1 |
| 20260501150024 | 68 | 198 | 0.0 | 0.0 | 0.00 | 0.00 | 0.00 | 58 | 1021.1 |
| 20260501144523 | 68 | 188 | 0.0 | 0.0 | 0.00 | 0.00 | 0.00 | 53 | 1021.1 |
| 20260501143018 | 69 | 189 | 0.0 | 0.0 | 0.00 | 0.00 | 0.00 | 51 | 1021.2 |